IRIDIUM 33 DEB, 34487

Orbit data source: Space-Track

IRIDIUM 33 DEB, 34487 is space debris in LEO originally from a launch on Sun, 14 Sep 1997 UTC launched from the Tyuratam Missile And Space Complex (TTMTR). The debris from Iridium 33, an American commercial communications satellite, has been tracked extensively since its accidental collision with the defunct Russian satellite Cosmos 2251 in 2009. This event, occurring at high speed in low Earth orbit (LEO), generated thousands of pieces of space debris, significantly increasing the risk of further collisions. The Iridium 33 debris cloud has impacted space traffic management and orbital debris mitigation strategies, making it a subject of ongoing study in space situational awareness.

Loading next visibility...
Identifier
34487, 1997-051GC
Orbit
LEO
Country
Flag of USUS
Related business
Manufacturer
Unknown
Mission
Spacecraft
Bus & Motor
Unknown
Mass
Unknown
Launch date (UTC)
1997-09-14 (28 years ago)
Launch vehicle
Unknown
Launch site
Tyuratam Missile And Space Complex (TTMTR)
Object type
Payload
Rocket body
Debris
Shape & HBR
Unknown shape, 0.1 m
Radar Cross Section
Small (<0.1 m²)

Expand to show TLE details & history
Last TLE update: 9 hours ago

TLE from 9 hours ago
0 IRIDIUM 33 DEB
1 34487U 97051GC  25307.97904118  .00000885  00000-0  25676-3 0  9994
2 34487  86.3471  29.0548 0029012 257.8213 279.9947 14.43129558876894
Epoch: 2025-11-03T23:29Z
TLE epoch observation values (Epoch: 2025-11-03T23:29:49.157Z)
Latitude
2.40171°
Longitude
172.97473°
Altitude
747.429 km
Speed
7.483 km/s
True Right ascension
13h 55m 36s
True Declination
2° 23' 14"
Sunlit
Object was in daylight at epoch
Visualization orbit readout
Latitude
Unknown
Longitude
Unknown
Altitude
Unknown
Speed
Unknown
Apparent Right ascension
Unknown
Apparent Declination
Unknown
Sunlit
N/A
Visualization observer readout
Local Sidereal Time
04:23:10
Azimuth
Unknown
Elevation
Unknown
Doppler factor
Unknown
Orbital elements
Apogee altitude
765.796 km
Perigee altitude
724.464 km
Semi-major axis
7,123.267 km
Eccentricity
0.0029
Inclination
86.3471°
RAAN
29.0548°
Arg. of periapsis
257.8213°
True anomaly
279.66709°
Mean anomaly
279.9947°
Eccentric anomaly
279.83091°
Mean motion
3.61014 °/min
Orbital period
99.72 mins
BSTAR
0.00025676
Loading maneuver chart data...
Computing Atmospheric mass density...

Documentation

Showing up to 5 results
|